KBOS

Boston/Logan International

Airport
ICAO code
KBOS
IATA Code
BOS
Summary
ICAO Region
NAM
ICAO Territory
Location

East Boston, Massachusetts,

Serving
Boston
Elevation
20 ft
Coordinates
42° 21' 55" N , 71° 0' 27" W
KCC
Airport BS
Bird Strike
Airport LOS
Parallel Runway Operation
Airport RE
Engineered Materials Arresting System
Metar
Observation
KBOS 070054Z 11005KT 10SM -RA FEW042 OVC085 10/08 A3041 RMK AO2 SLP296 P0004 T01000083
Station
Boston, Logan International Airport
Date/Time
2022-12-07 00:54:00
Wind direction
110°
Wind speed
05 kts
Lowest cloud amount
few clouds
Temperature
10°C
Dew point
8.3°C
Humidity
89%
Weather condition
light rain

Description

General Edward Lawrence Logan International Airport in the East Boston neighbourhood of Boston, Massachusetts, United States.

Climatology

Humid continental climate with a maritime influence (Köppen climate classification Dfa/Cfa) - characterized by four seasons: cold, windy, snowy winters, mild springs, hot, humid summers, and crisp and relatively short autumns. Precipitation reaches its lowest in January and February and peaks in summer and latter half of spring.

Airport map

Aerial View

Airport accidents

SKYbrary Partners:

Safety knowledge contributed by: